Location: Bosque Peak Cemetery
(34.7656°N, 106.4297°W)
Time: 14:11:28
(UTC+00:00)

Daily predictions for brighter satellites

Satellite Brightness Start Highest point End
(mag) Time Altitude Azimuth Time Altitude Azimuth Time Altitude Azimuth
Cosmos 1356 4.4 12:01:23 10° NW 12:04:17 26° W 12:07:11 10° SSW
Gbstr 26 Del rocket 3.8 12:01:18 10° SW 12:07:43 83° SE 12:12:50 10° NE
COSMO-SKYMED 1 3.7 12:04:06 10° SSE 12:08:16 49° ENE 12:12:27 10° N
Cosmos 1818 3.5 12:03:19 10° NNW 12:08:46 83° WSW 12:14:10 10° SSE
H-2A R/B 2.3 12:07:53 10° N 12:11:54 66° WNW 12:15:46 10° SSW
Cosmos 1943 4.4 12:07:14 10° N 12:12:44 48° ENE 12:18:12 10° SE
Aureole 3 Rocket 3.9 12:09:20 10° N 12:13:32 48° ENE 12:16:47 10° SSE
Cosmos 1867 4.0 12:11:18 10° SW 12:16:31 47° WNW 12:21:47 10° NNE
CZ-2C R/B 3.5 12:13:03 10° NNW 12:16:32 22° WNW 12:20:02 10° WSW
CENTAUR R/B 4.0 12:15:19 10° W 12:19:44 20° NW 12:24:40 10° N
Cosmos 1437 Rocket 2.9 12:16:47 10° SSW 12:20:48 59° W 12:24:51 10° N
SeaSat 1 2.9 12:21:59 10° S 12:26:34 39° WSW 12:31:11 10° NW
Cosmos 1553 Rocket 4.3 12:20:31 10° N 12:26:51 81° E 12:33:14 10° S
